Hanford, WA
on Monday, December 10, 2012

Monday
Previous Day Next Day
Daily Summary
 ActualAverage (KMWH)Record (KMWH)
Temperature
Mean Temperature °F / °C 29°F / -2°C  
Max Temperature 33°F / 1°C 35°F / 2°C 55°F / 12°C (2004)
Min Temperature 27°F / -3°C 23°F / -5°C 6°F / -14°C (2013)
Degree Days
Heating Degree Days 35 36  
Month to date heating degree days 347  
Since 1 July heating degree days 1808  
Cooling Degree Days 0 0  
Month to date cooling degree days 0  
Year to date cooling degree days 615  
Moisture
Dew Point 31°F / -1°C   
Average Humidity 99    
Maximum Humidity 100    
Minimum Humidity 94    
Precipitation
Precipitation 0.00 in / 0.00 cm 0.04 in / 1.02 cm 0.23 in / 0.58 cm (1983)
Month to date precipitation 0.37  
Year to date precipitation 8.04  
Wind
Wind Speed 4 mph / 6 km/h   
Max Wind Speed 7 mph / 11 km/h   
Max Gust Speed mph / km/h   
Visibility 3 miles / 5 kilometers   
Events Fog   

Key: T is trace of precipitation, MM is missing value
Source: NWS Daily Summary
Time(PST)TemperatureDew PointHumidity Pressure Visibility Wind DirectionWind SpeedGust SpeedPrecipitationEvents Conditions
12:50 AM 28.9°F / -1.7°C 28.0°F / -2.2°C 96% 30.22 in / 1023.3 hPa 15.0 miles / 24.1 kilometers North 6.9 mph / 11.1 km/h - N/A   Clear
1:50 AM 27.3°F / -2.6°C 25.9°F / -3.4°C 94% 30.23 in / 1023.7 hPa 15.0 miles / 24.1 kilometers ESE 3.5 mph / 5.6 km/h - N/A   Scattered Clouds
2:50 AM 32.5°F / 0.3°C 32.2°F / 0.1°C 99% 30.28 in / 1025.2 hPa 15.0 miles / 24.1 kilometers ESE 3.5 mph / 5.6 km/h - N/A   Mostly Cloudy
3:50 AM 32.4°F / 0.2°C 32.0°F / 0.0°C 99% 30.29 in / 1025.7 hPa 8.0 miles / 12.9 kilometers South 3.5 mph / 5.6 km/h - N/A   Overcast
4:50 AM 31.1°F / -0.5°C 30.6°F / -0.8°C 98% 30.32 in / 1026.5 hPa 4.0 miles / 6.4 kilometers South 2.3 mph / 3.7 km/h - N/A   Overcast
5:50 AM 30.6°F / -0.8°C 30.4°F / -0.9°C 99% 30.32 in / 1026.6 hPa 3.0 miles / 4.8 kilometers East 3.5 mph / 5.6 km/h - N/A   Mist
6:50 AM 31.5°F / -0.3°C 31.1°F / -0.5°C 99% 30.33 in / 1027.0 hPa 4.0 miles / 6.4 kilometers ESE 4.6 mph / 7.4 km/h - N/A   Overcast
7:50 AM 28.0°F / -2.2°C 27.5°F / -2.5°C 98% 30.34 in / 1027.3 hPa 0.1 miles / 0.2 kilometers East 5.8 mph / 9.3 km/h - N/A Fog Light Freezing Fog
8:50 AM 30.9°F / -0.6°C 30.9°F / -0.6°C 100% 30.34 in / 1027.3 hPa 0.5 miles / 0.8 kilometers ESE 5.8 mph / 9.3 km/h - N/A Fog Light Freezing Fog
9:50 AM 30.9°F / -0.6°C 30.7°F / -0.7°C 99% 30.32 in / 1026.6 hPa 0.8 miles / 1.2 kilometers ENE 5.8 mph / 9.3 km/h - N/A   Mist
10:50 AM 32.0°F / 0.0°C 32.0°F / 0.0°C 100% 30.32 in / 1026.5 hPa 0.1 miles / 0.2 kilometers SSE 4.6 mph / 7.4 km/h - N/A Fog Fog
11:50 AM 32.9°F / 0.5°C 32.9°F / 0.5°C 100% 30.30 in / 1025.8 hPa 0.2 miles / 0.4 kilometers South 4.6 mph / 7.4 km/h - N/A Fog Fog
12:50 PM 33.3°F / 0.7°C 33.3°F / 0.7°C 100% 30.27 in / 1025.1 hPa 0.5 miles / 0.8 kilometers NE 4.6 mph / 7.4 km/h - N/A Fog Fog
1:50 PM 33.3°F / 0.7°C 33.3°F / 0.7°C 100% 30.26 in / 1024.5 hPa 0.5 miles / 0.8 kilometers East 3.5 mph / 5.6 km/h - N/A Fog Fog
2:50 PM 33.4°F / 0.8°C 33.3°F / 0.7°C 99% 30.25 in / 1024.3 hPa 0.8 miles / 1.2 kilometers North 4.6 mph / 7.4 km/h - N/A   Mist
3:50 PM 33.1°F / 0.6°C 33.1°F / 0.6°C 100% 30.22 in / 1023.2 hPa 0.1 miles / 0.2 kilometers NW 4.6 mph / 7.4 km/h - N/A Fog Fog
4:50 PM 32.2°F / 0.1°C 32.2°F / 0.1°C 100% 30.21 in / 1022.9 hPa 0.1 miles / 0.1 kilometers NE 2.3 mph / 3.7 km/h - N/A Fog Fog
5:50 PM 31.6°F / -0.2°C 31.6°F / -0.2°C 100% 30.19 in / 1022.3 hPa 0.1 miles / 0.1 kilometers SE 2.3 mph / 3.7 km/h - N/A Fog Light Freezing Fog
6:50 PM 31.1°F / -0.5°C 31.1°F / -0.5°C 100% 30.18 in / 1021.8 hPa 0.1 miles / 0.1 kilometers NNE 2.3 mph / 3.7 km/h - N/A Fog Light Freezing Fog
9:50 PM 30.9°F / -0.6°C 30.9°F / -0.6°C 100% 30.11 in / 1019.6 hPa 0.1 miles / 0.2 kilometers East 3.5 mph / 5.6 km/h - N/A Fog Light Freezing Fog
10:50 PM 30.9°F / -0.6°C 30.9°F / -0.6°C 100% 30.09 in / 1018.9 hPa 0.1 miles / 0.2 kilometers ESE 2.3 mph / 3.7 km/h - N/A Fog Light Freezing Fog
11:50 PM 31.8°F / -0.1°C 31.8°F / -0.1°C 100% 30.06 in / 1017.9 hPa 0.1 miles / 0.2 kilometers SE 3.5 mph / 5.6 km/h - N/A Fog Light Freezing Fog
Moon Phase
Dec. 10 Dec. 13 Dec. 20 Dec. 28 Jan. 04
Sunrise:07:32 AM (PST) Moon Rise:04:14 AM (PST)12/10
Sunset:04:10 PM (PST) Moon Set:02:09 PM (PST)12/10

Copyright © 2014 The Weather Underground, Inc.